www.pogodaiklimat.ru

Погода и климат >> Архив погоды >> Россия >> Крым >> Феодосия


АРХИВ ПОГОДЫ в Феодосии

Время (UTC), дата Ветер
(напр.,м/с)
 
Видим.   Явления Облачность Т
(С)
Тd
(С)
f
(%)
Тe
(С)
Тes
(С)
Комфортность P
(гПа)
Po
(гПа)
Тmin
(С)
Tmax
(С)
R
(мм)
R24
(мм)
S
(см)
00 17.01 Ю 1 10 км {ливн. осадки} 8/8 600 м
[Sc]
+1.4 -0.8 85 -0 -0 по сезону 1010.0 1006.6
03 17.01 СЗ 2 10 км 8/8 600 м
[Sc]
+0.9 -0.8 88 -3 -3 по сезону 1012.8 1009.4 +0.9 1
06 17.01 З 3 4000 м дымка 8/5 600 м
[Sc Ac trans]
+0.2 -0.9 92 -5 -4 по сезону 1015.3 1011.9 +0.2 1
12 17.01 З 4 10 км 4/4 600 м
[Sc]
+3.4 -3.6 60 -1 0 по сезону 1018.5 1015.1
15 17.01 З 2 10 км 4/4 600 м
[Sc]
+1.0 -2.5 77 -2 -2 по сезону 1019.7 1016.3
18 17.01 ЮЗ 1 10 км 4/4 600 м
[Sc]
-1.4 -3.6 85 -4 -4 по сезону 1020.8 1017.4 +3.6
21 17.01 З 1 10 км 6/6 600 м
[St]
-1.1 -2.6 90 -3 -3 по сезону 1021.3 1017.9
00 18.01 Ю 3 10 км 3/3 600 м
[St]
+4.5 -2.5 60 +1 +1 по сезону 1019.9 1016.5
03 18.01 Ю 4 10 км ясно +5.0 -2.5 58 +1 +1 по сезону 1018.9 1015.6 -1.4
06 18.01 Ю 3 10 км 3/3 600 м
[St]
+5.8 -1.1 61 +3 +3 тепло 1019.2 1015.9 -1.4
09 18.01 Ю 4 10 км 4/4 600 м
[Sc diur, vesp]
+8.4 +0.3 57 +6 +7 тепло 1018.9 1015.6
12 18.01 Ю 6-12
{14}
10 км 4/4 600 м
[Sc diur, vesp]
+8.2 +2.0 65 +4 +5 тепло 1017.6 1014.3
15 18.01 Ю 4-10
{12}
10 км 8/3 600 м
[Sc diur, vesp Ac lent Ci fib]
+8.2 +1.6 63 +5 +5 тепло 1017.6 1014.3
18 18.01 Ю 5-11
{11}
10 км 8/4 600 м
[Sc Ci fib]
+8.3 +2.0 64 +5 +5 тепло 1017.7 1014.4 +9.0
21 18.01 Ю 4-11
{11}
10 км 4/4 600 м
[Sc]
+8.5 +2.9 68 +6 +6 тепло 1017.8 1014.5
00 19.01 Ю 2
{11}
10 км 8/0
[Ci fib]
+8.3 +2.9 69 +7 +7 тепло 1017.5 1014.2
03 19.01 Ю 1 10 км 3/0
[Ac trans]
+8.3 +3.1 70 +8 +8 тепло 1016.7 1013.4 +8.1
06 19.01 Ю 3 10 км 9/3 600 м
[Sc Ac trans Ci fib]
+8.9 +5.3 78 +7 +7 тепло 1016.4 1013.1 +8.3
09 19.01 Ю 2 10 км 9/0
[Ac As]
+11.2 +6.7 74 +10 +12 тепло 1016.6 1013.3
12 19.01 З 4
{11}
10 км 10/10 600 м
[Sc]
+6.8 +4.0 82 +3 +3 по сезону 1018.2 1014.9
15 19.01 СЗ 2
{10}
10 км 10/10 600 м
[Cb cap]
+4.2 +1.7 84 +1 +1 по сезону 1020.9 1017.5
18 19.01 З 3 10 км 10/10 600 м
[Sc]
+3.0 -1.2 74 -1 -1 по сезону 1022.7 1019.3 +12.5
21 19.01 СЗ 2 10 км 10/10 600 м
[Sc]
+1.8 -1.9 76 -1 -1 по сезону 1024.7 1021.3
00 20.01 З 3 10 км 10/10 600 м
[Sc]
+0.3 -3.7 74 -4 -4 по сезону 1025.6 1022.2
03 20.01 С 2 10 км 10/10 600 м
[Sc]
-0.6 -5.1 72 -4 -4 по сезону 1025.6 1022.2 -0.6
06 20.01 СЗ 1 10 км 8/8 600 м
[Sc]
-1.6 -6.0 72 -3 -3 по сезону 1025.7 1022.3 -1.6
09 20.01 ЮВ 3 20 км 5/5 600 м
[Sc]
+2.8 -5.2 56 -1 +1 по сезону 1025.4 1022.0
12 20.01 Ю 2 10 км 8/3 600 м
[St Ac trans Ci fib]
+3.8 -1.1 70 +1 +2 по сезону 1022.9 1019.5
15 20.01 Ю 1 10 км 10/10 600 м
[Sc]
+4.0 +1.4 83 +3 +3 тепло 1022.1 1018.7
18 20.01 ЮВ 2 10 км 9/9 600 м
[Sc]
+5.1 +2.7 84 +3 +3 тепло 1021.0 1017.7 +5.1
21 20.01 Ю 3 10 км 8/8 600 м
[Sc]
+5.7 +2.8 82 +2 +2 тепло 1019.7 1016.4
00 21.01 Ю 4
{11}
10 км 8/0
[Ac trans]
+6.7 +3.4 79 +3 +3 тепло 1017.6 1014.3
03 21.01 Ю 4
{10}
10 км 8/8 600 м
[Sc]
+7.0 +3.5 78 +4 +4 тепло 1015.3 1012.0 +4.0
06 21.01 ЮВ 3
{10}
10 км 10/10 600 м
[Sc]
+7.8 +4.7 81 +5 +5 тепло 1014.4 1011.1 +5.1
09 21.01 Ю 4 10 км 10/10 600 м
[Sc]
+8.2 +5.0 80 +5 +5 тепло 1013.9 1010.6
12 21.01 ЮЗ 3
{10}
10 км {ливн. осадки} 10/10 600 м
[Cb cap]
+8.7 +5.8 82 +6 +6 тепло 1012.8 1009.5
15 21.01 З 2 10 км в посл. час ливневой дождь 9/9 600 м
[Cb cap]
+7.6 +6.6 93 +5 +5 тепло 1013.8 1010.5 2
18 21.01 З 5-10
{10}
4000 м слаб. морось 10/10 600 м
[St]
+3.2 +2.2 93 -2 -2 по сезону 1016.0 1012.6 +9.4 2
21 21.01
{11}
10 км в посл. час морось 10/10 600 м
[St]
+0.6 -0.5 92 1018.8 1015.4
00 22.01 СЗ 4
{10}
10 км {морось} 10/10 600 м
[Sc]
-0.6 -3.4 81 -6 -6 прохладно 1020.5 1017.1
03 22.01 СЗ 3 10 км 10/10 600 м
[Cb cap]
-1.3 -3.6 84 -6 -6 по сезону 1021.5 1018.1 -1.3 0.0
06 22.01 СЗ 3 10 км 10/10 600 м
[Cb cap]
-2.2 -5.8 76 -7 -7 прохладно 1022.7 1019.3 -2.2 0.0
09 22.01 СЗ 3 10 км 10/10 600 м
[Sc]
-1.9 -5.4 77 -7 -7 прохладно 1024.0 1020.6
12 22.01 С 2 10 км 9/9 600 м
[Sc]
-1.0 -5.3 73 -5 -4 прохладно 1023.0 1019.6
15 22.01 СЗ 2 10 км 10/10 600 м
[Sc]
-1.4 -5.1 76 -5 -5 прохладно 1022.6 1019.2
18 22.01 В 2 10 км 8/8 600 м
[Sc]
-0.8 -3.4 83 -5 -5 по сезону 1021.8 1018.4 -0.8
21 22.01 В 4 10 км 10/10 600 м
[Sc]
+0.6 -1.1 88 -5 -5 по сезону 1020.6 1017.2
00 23.01 В 5 10 км 10/10 600 м
[Sc]
+2.0 +0.7 91 -4 -4 по сезону 1018.3 1014.9
06 23.01 ЮВ 3
{10}
10 км 8/8 600 м
[Cb cap]
+6.0 +2.1 76 +3 +3 тепло 1014.7 1011.4 -0.8
12 23.01 Ю 3
{11}
10 км 10/10 600 м
[Cb cap]
+8.5 +4.2 74 +6 +6 тепло 1011.7 1008.4

 

Местоположение метеостанции Феодосия (Крым, Россия): широта 45.03 долгота 35.38 высота над уровнем моря 26 м.

В архиве по умолчанию представлена погода в Феодосии за последнюю неделю. Архивные данные за месяц целиком и за предыдущие месяцы, начиная с января 2011 года, Вы можете получить, выбрав интересующий диапазон дат из раскрывающегося списка и нажав кнопку "Ввод!".


*Определитесь, кто Вы:
робот инопланетянин человек

Внимание! Время в таблицах - всемирное. Для получения местного времени необходимо прибавить поправку, которая равна 3 ч.

Смотрите также архив погоды в соседних городах и на ближайших метеорологических станциях:

Погода в Владиславовке (Крым, Россия) (16 км)
Погода в Карадаге (Крым, Россия) (20 км)
Погода в Мысовом (Крым, Россия) (58 км)
Погода в Белогорске (Крым, Россия) (61 км)
Погода в Нижнегорском (Крым, Россия) (69 км)
Погода на Ангарском Перевале (Крым, Россия) (87 км)
Погода в Стрелковом (Херсонская область, Украина) (87 км)
Погода в Алуште (Крым, Россия) (87 км)
Погода в Керчи (Крым, Россия) (91 км)
Погода в Симферополе город (Крым, Россия) (100 км)

Пояснения к столбцам:

Ветер - указаны скорость ветра в м/с - средняя за 10 мин, порывы в срок и между сроками (в фигурных скобках) и направление, откуда дует ветер: С - северный, СВ - северо-восточный, В - восточный, ЮВ - юго-восточный, Ю - южный, ЮЗ - юго-западный, З - западный, СЗ - северо-западный.
Видимость - горизонтальная дальность видимости в метрах или километрах. При видимости от 1 до 10 км при отсутствии осадков обычно наблюдается дымка, при ухудшении видимости до 1 км и менее - туман. В сухую погоду видимость может ухудшаться дымом, пылью или мглою.
Явления - указаны атмосферные явления, наблюдавшиеся в срок или в последний час перед сроком; фигурными скобками обозначены явления, наблюдавшиеся между сроками (за 1-3 часа до срока); квадратными скобками обозначены град или гололедные отложения с указанием их диаметра в мм.
Облачность - указаны через наклонную черту общая и нижняя облачность в баллах и высота нижней границы облаков в метрах; квадратными скобками обозначены формы облаков: Ci - перистые, Cs - перисто-слоистые, Cc - перисто-кучевые, Ac - высококучевые, As - высокослоистые, Sc - слоисто-кучевые, Ns - слоисто-дождевые, Cu - кучевые, Cb - кучево-дождевые. Подробнее классификацию облаков см. в Атласе облаков (PDF).
T - Температура воздуха - температура, измеренная на высоте 2 м над землей.
Td - Температура точки росы - температура, при понижении до которой содержащийся в воздухе водяной пар достигнет насыщения.
f - Относительная влажность воздуха - влажноcть воздуха, измеренная на высоте 2 м над землей.
Te - Эффективная температура - температура, которую ощущает одетый по сезону человек в тени. Характеристика душности погоды. При расчете учитывается влияние влажности воздуха и скорости ветра на теплоощущения человека.
Tes - Эффективная температура на солнце - температура, которую ощущает человек, с поправкой на солнечный нагрев. Характеристика знойности погоды. Зависит от высоты солнца над горизонтом, облачности и скорости ветра. Ночью, в пасмурную погоду, а также при ветре 12 м/с и более поправка равна нулю.
P - Атмосферное давление - приведенное к уровню моря атмосферное давление.
Po - Атмосферное давление - измеренное на уровне метеостанции атмосферное давление.
Tmin - Минимальная температура - минимум температуры воздуха на высоте 2 м над землей.
Tmax - Максимальная температура - максимум температуры воздуха на высоте 2 м над землей.
R - Количество осадков - Количество выпавших осадков за период времени, мм. При наведении курсора мыши на число - период времени, за который выпало указанное количество осадков.
R24 - Количество осадков - Количество выпавших осадков за 24 часа, мм.
S - Снежный покров - Высота снежного покрова, см. При наведении курсора мыши на число - состояние снежного покрова и степень покрытия местности в баллах.